Location: Dugenta
(41.1333°N, 14.4500°E)
Time: 13:28:52
(UTC+00:00)

SJ-6B - Pass Details

Date: 03 March 2021
Orbit: 509 x 581 km, 97.6° (Epoch: 13 April)

Event Time Altitude Azimuth Distance (km) Brightness Sun altitude
Exits shadow 19:23:03 42° 276° (W) 824 4.0 -28.3°
Drops below altitude 10° 19:26:37 10° 334° (NNW) 1,881 6.0 -28.9°
Sets 19:28:51 0° 341° (NNW) 2,773 6.9 -29.3°
